Location: ???????
(55.4362°N, 38.1183°E)
Time: 18:19:01
(UTC+00:00)

Cosmos 1943 - Pass Details

Date: 17 June 2021
Orbit: 831 x 852 km, 71.0° (Epoch: 29 July)

Event Time Altitude Azimuth Distance (km) Brightness Sun altitude
Exits shadow 22:39:55 10° 176° (S) 2,426 5.0 -9.7°
Maximum altitude 22:45:00 38° 110° (ESE) 1,261 4.1 -9.5°
Drops below altitude 10° 22:50:10 10° 44° (NE) 2,469 6.8 -9.3°
Sets 22:52:46 0° 37° (NE) 3,412 8.0 -9.1°
